Regional Weather Roundup
Issued by NWS

Home | Current Version | Previous Version | Text Only | Print | Product List | Glossary Off
Versions: 1 2 3 4 5 6 7 8 9 10 11 12 13 14 15 16 17 18 19 20 21 22 23 24 25 26 27 28 29 30 31 32 33 34 35 36 37 38 39 40 41 42 43 44 45 46 47 48 49 50

000
ASUS44 KMEG 300600
RWRTN
TENNESSEE HOURLY STATE WEATHER ROUNDUP
NATIONAL WEATHER SERVICE MEMPHIS TN
100 AM CDT MON MAR 30 2015

TNZ002-004-019-021-049-052-054-088>092-300700-
WEST TENNESSEE

CITY           SKY/WX    TMP DP  RH WIND       PRES   REMARKS
MEMPHIS INTL   LGT RAIN  60  57  89 N6        30.05S
NWS MEMPHIS      N/A     58 N/A N/A MISG        N/A
JACKSON        CLOUDY    52  50  93 CALM      30.07S
DYERSBURG      CLOUDY   N/A N/A N/A CALM      30.07S
UNION CITY     CLEAR     50  50 100 NW6       30.05F
PARIS          PTCLDY    48  45  87 CALM      30.05F
LEXINGTON      CLOUDY    48  48 100 CALM      30.06F
SAVANNAH       CLOUDY    54  52  94 SE3       30.09R
$$

TNZ008-025-027-028-033-062-065-066-300700-
NORTH MIDDLE TENNESSEE

CITY           SKY/WX    TMP DP  RH WIND       PRES   REMARKS
NASHVILLE      LGT RAIN  51  46  83 S3        30.08S
CLARKSVILLE    CLOUDY    53  47  79 CALM      30.05F
COOKEVILLE     CLOUDY    54  37  54 CALM      30.05F
CROSSVILLE     CLOUDY    53  33  46 S8        30.08F
$$

TNZ061-075-076-078-094-096-097-300700-
SOUTH MIDDLE TENNESSEE

CITY           SKY/WX    TMP DP  RH WIND       PRES   REMARKS
FAYETTEVILLE   MOCLDY    54  37  54 S10       30.06F
TULLAHOMA      CLOUDY    54  39  58 S8        30.06F
WINCHESTER     CLOUDY    55  39  54 S12       30.07F
COLUMBIA       CLOUDY   N/A N/A N/A NW7       30.10R
SHELBYVILLE    CLOUDY    54  45  71 SW5       30.08S
$$

TNZ017-018-042-046-047-300700-
NORTHEAST TENNESSEE

CITY           SKY/WX    TMP DP  RH WIND       PRES   REMARKS
TRI CITIES     MOCLDY    43  30  60 CALM      30.09F
ELIZABETHTON   MOCLDY    36  23  60 CALM      30.10F
$$

TNZ012-013-036-069-073-074-300700-
CENTRAL EAST TENNESSEE

CITY           SKY/WX    TMP DP  RH WIND       PRES   REMARKS
KNOXVILLE      CLOUDY    53  28  38 SW10      30.08F
OAK RIDGE      CLOUDY    56  29  35 CALM      30.10F
GATLINBURG     CLEAR     37  28  70 E6        30.08F WCI  33
$$

TNZ083-085-099-300700-
SOUTHEAST TENNESSEE

CITY           SKY/WX    TMP DP  RH WIND       PRES   REMARKS
CHATTANOOGA    CLOUDY    55  32  41 S3        30.12F
$$

SKY/WX REPORTED AS FAIR MEANS FEW OR NO CLOUDS BELOW
12 THOUSAND FEET.




USA.gov is the U.S. government's official web portal to all federal, state and local government web resources and services.